Latest Weather Observations for Warwick

IDQ60901

Issued at 1:15 pm EST Monday 21 April 2014 (issued every 10 minutes, with the page automatically refreshed every 10 minutes)

About weather observations | Map of Brisbane area stations | Latest observations for Brisbane area | Other Formats
Station Details ID: 041525 Name: WARWICK Lat: -28.21 Lon: 152.10 Height: 475.4 m
Data from the previous 72 hours. | See also: Recent months at Warwick
Date/Time
EST
Tmp

°C
App
Tmp
°C
Dew
Point
°C
Rel
Hum
%
Delta-T

°C
Wind Press
QNH
hPa
Press
MSL
hPa
Rain
since
9 am
mm
Dir
 
Spd
km/h
Gust
km/h
Spd
kts
Gust
kts
21/01:00pm 25.6 25.0 10.5 38 8.6 E 4 13 2 7 1019.6 - 0.0
21/12:30pm 25.3 23.7 11.4 41 8.0 W 11 19 6 10 1020.1 - 0.0
21/12:00pm 24.3 21.4 9.5 39 8.2 W 15 22 8 12 1020.6 1019.2 0.0
21/11:30am 23.7 21.4 10.6 43 7.4 WNW 13 30 7 16 1021.1 - 0.0
21/11:00am 23.3 21.0 10.5 44 7.2 NW 13 20 7 11 1021.6 - 0.0
21/10:30am 22.7 21.3 10.8 47 6.7 NW 9 17 5 9 1021.9 - 0.0
21/10:00am 21.6 20.5 10.5 49 6.2 W 7 15 4 8 1022.1 - 0.0
21/09:30am 19.0 18.2 11.1 60 4.4 S 6 7 3 4 1022.2 - 0.0
21/09:00am 16.4 16.5 10.1 66 3.4 CALM 0 0 0 0 1022.3 1020.9 0.0
21/08:30am 14.0 13.8 9.2 73 2.5 CALM 0 0 0 0 1022.4 - 0.0
21/08:00am 12.3 11.9 8.3 76 2.0 CALM 0 0 0 0 1022.2 - 0.0
21/07:30am 11.3 10.8 7.9 79 1.7 CALM 0 0 0 0 1021.8 - 0.0
21/07:00am 7.9 7.1 6.6 91 0.6 CALM 0 2 0 1 1021.5 - 0.0
21/06:30am 6.6 5.7 5.9 95 0.3 CALM 0 0 0 0 1021.1 - 0.0
21/06:00am 6.9 5.9 5.8 93 0.5 NNW 0 0 0 0 1020.7 1019.3 0.0
21/05:30am 6.2 5.1 5.3 94 0.4 CALM 0 0 0 0 1020.6 - 0.0
21/05:00am 6.4 5.3 5.1 91 0.6 CALM 0 0 0 0 1020.1 - 0.0
21/04:30am 7.1 6.1 5.8 91 0.6 CALM 0 0 0 0 1019.8 - 0.0
21/04:00am 7.5 6.6 6.2 91 0.6 CALM 0 0 0 0 1019.6 - 0.0
21/03:30am 7.7 6.9 6.6 93 0.5 CALM 0 0 0 0 1019.4 - 0.0
21/03:00am 7.8 7.0 6.5 91 0.6 CALM 0 0 0 0 1019.2 1017.8 0.0
21/02:30am 8.1 7.4 6.8 91 0.6 CALM 0 0 0 0 1019.1 - 0.0
21/02:00am 9.0 8.3 6.9 87 1.0 CALM 0 0 0 0 1019.1 - 0.0
21/01:30am 9.2 8.5 7.1 87 1.0 CALM 0 0 0 0 1019.3 - 0.0
21/01:00am 9.5 9.0 7.9 90 0.8 NW 0 7 0 4 1019.3 - 0.0
21/12:30am 10.4 9.7 7.1 80 1.6 CALM 0 0 0 0 1019.3 - 0.0
21/12:00am 10.3 9.8 7.9 85 1.2 NE 0 0 0 0 1019.4 1018.0 0.0
 
Date/Time
EST
Tmp

°C
App
Tmp
°C
Dew
Point
°C
Rel
Hum
%
Delta-T

°C
Wind Press
QNH
hPa
Press
MSL
hPa
Rain
since
9 am
mm
Dir
 
Spd
km/h
Gust
km/h
Spd
kts
Gust
kts
20/11:30pm 9.4 7.9 6.7 83 1.3 NE 4 9 2 5 1019.4 - 0.0
20/11:00pm 12.7 12.4 8.8 77 2.0 CALM 0 0 0 0 1019.4 - 0.0
20/10:30pm 12.9 12.8 9.6 80 1.7 CALM 0 0 0 0 1019.4 - 0.0
20/10:00pm 13.2 12.8 8.3 72 2.5 CALM 0 0 0 0 1019.6 - 0.0
20/09:30pm 14.0 13.6 8.3 68 2.9 CALM 0 0 0 0 1019.4 - 0.0
20/09:00pm 13.8 13.5 8.8 72 2.6 CALM 0 0 0 0 1019.2 1017.8 0.0
20/08:30pm 13.1 11.4 8.2 72 2.5 SSW 7 11 4 6 1019.0 - 0.0
20/08:00pm 16.4 13.8 7.9 57 4.4 ENE 11 13 6 7 1018.6 - 0.0
20/07:30pm 14.6 12.4 7.9 64 3.4 ENE 9 13 5 7 1018.3 - 0.0
20/07:00pm 16.2 15.6 7.6 56 4.4 CALM 0 0 0 0 1017.9 - 0.0
20/06:30pm 17.2 14.9 5.5 46 5.8 WNW 7 9 4 5 1017.7 - 0.0
20/06:00pm 17.4 15.2 6.3 48 5.6 WNW 7 7 4 4 1017.5 1016.0 0.0
20/05:30pm 18.9 16.9 6.3 43 6.4 NW 6 9 3 5 1017.0 - 0.0
20/05:00pm 23.2 21.1 6.6 34 8.7 WNW 7 13 4 7 1016.8 - 0.0
20/04:30pm 24.6 22.0 6.1 30 9.7 WNW 9 15 5 8 1016.5 - 0.0
20/04:00pm 25.2 22.2 6.0 29 10.1 W 11 19 6 10 1016.4 - 0.0
20/03:30pm 25.2 23.1 6.8 30 9.8 W 7 19 4 10 1016.2 - 0.0
20/03:00pm 25.1 23.1 7.0 31 9.7 W 7 11 4 6 1016.3 1014.8 0.0
20/02:30pm 25.0 22.5 8.1 34 9.2 W 11 20 6 11 1016.4 - 0.0
20/02:00pm 24.9 22.4 8.0 34 9.2 W 11 20 6 11 1016.5 - 0.0
20/01:30pm 24.3 21.1 7.0 33 9.2 WNW 13 20 7 11 1016.8 - 0.0
20/01:00pm 24.1 21.1 5.9 31 9.5 WNW 11 20 6 11 1017.1 - 0.0
20/12:30pm 23.6 21.6 7.0 34 8.8 NW 7 15 4 8 1017.6 - 0.0
20/12:00pm 23.6 20.6 6.2 32 9.1 WNW 11 17 6 9 1018.1 1016.6 0.0
20/11:30am 23.1 19.8 6.2 33 8.8 WSW 13 20 7 11 1018.5 - 0.0
20/11:00am 22.7 20.6 6.7 35 8.4 W 7 15 4 8 1018.9 - 0.0
20/10:30am 21.8 21.7 10.7 49 6.2 W 2 9 1 5 1019.3 - 0.0
20/10:00am 20.7 20.7 11.1 54 5.4 SW 2 7 1 4 1019.4 - 0.0
20/09:30am 18.8 19.0 10.4 58 4.6 CALM 0 0 0 0 1019.6 - 0.0
20/09:00am 17.2 16.8 9.8 61 4.0 SSE 2 7 1 4 1019.7 1018.2 0.0
20/08:30am 15.9 15.8 9.3 65 3.5 CALM 0 6 0 3 1019.6 - 0.0
20/08:00am 12.7 12.4 8.6 76 2.1 CALM 0 0 0 0 1019.4 - 0.0
20/07:30am 10.9 10.3 7.2 78 1.8 CALM 0 0 0 0 1019.1 - 0.0
20/07:00am 7.0 5.8 4.8 86 1.0 CALM 0 0 0 0 1019.0 - 0.0
20/06:30am 6.5 5.5 5.6 94 0.4 CALM 0 0 0 0 1018.6 - 0.0
20/06:00am 6.7 5.7 5.6 93 0.5 CALM 0 0 0 0 1018.2 1016.7 0.0
20/05:30am 7.1 6.2 6.2 94 0.4 CALM 0 0 0 0 1018.0 - 0.0
20/05:00am 7.2 6.2 5.7 90 0.7 CALM 0 0 0 0 1017.6 - 0.0
20/04:30am 7.6 6.8 6.3 91 0.6 CALM 0 0 0 0 1017.2 - 0.0
20/04:00am 6.9 6.0 6.0 94 0.4 CALM 0 0 0 0 1017.2 - 0.0
20/03:30am 6.9 5.9 5.8 93 0.5 CALM 0 0 0 0 1017.2 - 0.0
20/03:00am 8.1 7.2 6.2 88 0.9 CALM 0 0 0 0 1017.1 1015.7 0.0
20/02:30am 8.6 6.6 6.3 85 1.1 ENE 6 7 3 4 1017.2 - 0.0
20/02:00am 9.7 7.8 6.6 81 1.5 NNE 6 7 3 4 1017.4 - 0.0
20/01:30am 9.8 9.1 6.9 82 1.4 CALM 0 7 0 4 1017.5 - 0.0
20/01:00am 9.4 8.7 6.9 84 1.2 CALM 0 0 0 0 1017.7 - 0.0
20/12:30am 7.8 6.9 5.9 88 0.9 CALM 0 0 0 0 1017.7 - 0.0
20/12:00am 10.8 9.9 6.2 73 2.2 CALM 0 0 0 0 1017.5 1016.0 0.0
 
Date/Time
EST
Tmp

°C
App
Tmp
°C
Dew
Point
°C
Rel
Hum
%
Delta-T

°C
Wind Press
QNH
hPa
Press
MSL
hPa
Rain
since
9 am
mm
Dir
 
Spd
km/h
Gust
km/h
Spd
kts
Gust
kts
19/11:30pm 10.4 9.7 6.9 79 1.7 CALM 0 0 0 0 1017.6 - 0.0
19/11:00pm 11.3 10.7 7.2 76 2.0 CALM 0 0 0 0 1017.6 - 0.0
19/10:30pm 10.6 10.0 7.6 82 1.5 CALM 0 0 0 0 1017.8 - 0.0
19/10:00pm 11.8 11.0 6.7 71 2.5 CALM 0 6 0 3 1017.7 - 0.0
19/09:30pm 11.9 11.2 6.8 71 2.5 CALM 0 0 0 0 1017.7 - 0.0
19/09:00pm 12.3 11.1 8.1 75 2.1 ENE 4 6 2 3 1017.5 1016.0 0.0
19/08:30pm 12.6 10.3 7.4 70 2.6 ENE 9 9 5 5 1017.1 - 0.0
19/08:00pm 12.9 12.0 7.9 71 2.5 ESE 2 7 1 4 1016.9 - 0.0
19/07:30pm 17.2 15.1 6.5 49 5.4 WNW 7 9 4 5 1016.7 - 0.0
19/07:00pm 18.4 16.0 6.9 47 5.9 W 9 11 5 6 1016.3 - 0.0
19/06:30pm 18.7 16.8 7.6 48 5.8 W 7 9 4 5 1015.9 - 0.0
19/06:00pm 18.8 17.0 7.9 49 5.7 W 7 11 4 6 1015.4 1013.9 0.0
19/05:30pm 19.5 17.3 7.7 46 6.2 W 9 13 5 7 1015.0 - 0.0
19/05:00pm 21.7 18.5 7.0 38 7.7 WSW 13 20 7 11 1014.8 - 0.0
19/04:30pm 23.2 19.4 5.8 32 9.0 WSW 15 22 8 12 1014.7 - 0.0
19/04:00pm 23.5 20.2 6.6 33 8.9 W 13 19 7 10 1014.4 - 0.0
19/03:30pm 24.1 20.4 6.5 32 9.3 WSW 15 24 8 13 1014.3 - 0.0
19/03:00pm 24.2 19.7 6.1 31 9.5 WSW 19 28 10 15 1014.4 1012.9 0.0
19/02:30pm 24.1 20.1 6.5 32 9.3 WSW 17 26 9 14 1014.4 - 0.0
19/02:00pm 24.3 19.7 6.5 32 9.4 SW 20 30 11 16 1014.4 - 0.0
19/01:30pm 23.5 19.3 5.5 31 9.3 W 17 28 9 15 1014.7 - 0.0
19/01:00pm 23.6 18.4 5.3 30 9.4 SSW 22 28 12 15 1015.2 - 0.0
19/12:30pm 23.4 19.2 5.9 32 9.1 W 17 26 9 14 1015.6 - 0.0
19/12:00pm 23.7 18.8 5.2 30 9.5 W 20 37 11 20 1016.2 1014.7 0.0
19/11:30am 22.5 17.5 4.7 31 9.0 WSW 20 28 11 15 1016.7 - 0.0
19/11:00am 21.5 19.6 7.5 40 7.4 SE 7 11 4 6 1017.2 - 0.0
19/10:30am 20.7 18.2 6.6 40 7.3 WSW 9 15 5 8 1017.8 - 0.0
19/10:00am 20.4 19.8 7.2 42 6.9 CALM 0 0 0 0 1018.1 - 0.0
19/09:30am 17.9 17.4 7.7 51 5.3 CALM 0 0 0 0 1018.3 - 0.0
19/09:00am 15.4 14.9 7.8 60 3.9 CALM 0 0 0 0 1018.6 1017.2 0.0
19/08:30am 12.7 12.1 7.3 69 2.7 CALM 0 0 0 0 1018.7 - 0.0
19/08:00am 10.4 9.7 6.9 79 1.7 CALM 0 0 0 0 1018.7 - 0.0
19/07:30am 8.1 7.1 5.7 85 1.1 CALM 0 4 0 2 1018.5 - 0.0
19/07:00am 6.3 5.1 4.7 89 0.7 CALM 0 0 0 0 1018.3 - 0.0
19/06:30am 5.5 3.2 4.8 95 0.3 NE 6 7 3 4 1018.1 - 0.0
19/06:00am 5.0 3.7 4.3 95 0.3 CALM 0 0 0 0 1017.9 1016.4 0.0
19/05:30am 6.5 5.5 5.6 94 0.4 CALM 0 0 0 0 1017.8 - 0.0
19/05:00am 6.3 5.4 5.9 97 0.2 CALM 0 0 0 0 1017.6 - 0.0
19/04:30am 6.2 5.2 5.5 95 0.3 CALM 0 0 0 0 1017.4 - 0.0
19/04:00am 6.4 5.4 5.7 95 0.3 CALM 0 0 0 0 1017.2 - 0.0
19/03:30am 6.7 5.8 6.1 96 0.3 CALM 0 0 0 0 1017.0 - 0.0
19/03:00am 7.0 6.0 5.7 91 0.6 CALM 0 0 0 0 1017.2 1015.8 0.0
19/02:30am 7.6 6.7 5.9 89 0.8 CALM 0 0 0 0 1017.2 - 0.0
19/02:00am 8.8 7.8 5.6 80 1.5 CALM 0 0 0 0 1017.2 - 0.0
19/01:30am 7.9 6.9 5.5 85 1.1 CALM 0 0 0 0 1017.4 - 0.0
19/01:00am 8.4 7.6 6.5 88 0.9 CALM 0 0 0 0 1017.4 - 0.0
19/12:30am 7.9 7.0 6.2 89 0.8 CALM 0 0 0 0 1017.4 - 0.0
19/12:00am 9.3 8.6 6.8 84 1.2 CALM 0 0 0 0 1017.2 1015.8 0.0
 
Date/Time
EST
Tmp

°C
App
Tmp
°C
Dew
Point
°C
Rel
Hum
%
Delta-T

°C
Wind Press
QNH
hPa
Press
MSL
hPa
Rain
since
9 am
mm
Dir
 
Spd
km/h
Gust
km/h
Spd
kts
Gust
kts
18/11:30pm 9.6 8.8 6.7 82 1.4 CALM 0 0 0 0 1017.5 - 0.0
18/11:00pm 10.2 9.5 7.1 81 1.5 CALM 0 0 0 0 1017.5 - 0.0
18/10:30pm 11.2 10.6 7.3 77 1.9 CALM 0 0 0 0 1017.4 - 0.0
18/10:00pm 11.5 9.7 7.2 75 2.1 E 6 7 3 4 1017.6 - 0.0
18/09:30pm 11.0 10.2 6.7 75 2.1 CALM 0 0 0 0 1017.6 - 0.0
18/09:00pm 12.7 11.7 7.5 70 2.6 ENE 2 7 1 4 1017.5 1016.0 0.0
18/08:30pm 12.7 12.2 7.9 72 2.4 CALM 0 0 0 0 1017.0 - 0.0
18/08:00pm 16.3 14.5 7.0 54 4.7 WNW 6 11 3 6 1016.9 - 0.0
18/07:30pm 17.3 15.4 7.4 52 5.1 WNW 7 11 4 6 1016.5 - 0.0
18/07:00pm 18.0 15.9 6.8 48 5.7 W 7 11 4 6 1016.1 - 0.0
18/06:30pm 17.0 15.4 8.2 56 4.6 W 6 9 3 5 1015.9 - 0.0
18/06:00pm 16.8 14.7 6.7 51 5.1 WNW 7 9 4 5 1015.6 1014.1 0.0
18/05:30pm 19.8 17.6 6.3 41 6.9 W 7 11 4 6 1015.3 - 0.0
18/05:00pm 22.4 18.8 5.1 32 8.8 WSW 13 19 7 10 1014.9 - 0.0
18/04:30pm 23.5 19.3 5.8 32 9.2 WSW 17 24 9 13 1014.6 - 0.0
18/04:00pm 24.1 20.4 6.5 32 9.3 WSW 15 26 8 14 1014.4 - 0.0
18/03:30pm 24.1 20.0 6.2 31 9.4 WSW 17 24 9 13 1014.2 - 0.0
18/03:00pm 24.3 21.0 8.1 35 8.8 WSW 15 24 8 13 1014.3 1012.8 0.0
18/02:30pm 24.2 21.5 7.4 34 9.0 W 11 24 6 13 1014.4 - 0.0
18/02:00pm 24.1 20.7 7.5 34 8.9 W 15 24 8 13 1014.6 - 0.0
18/01:30pm 23.9 21.2 7.2 34 8.9 W 11 17 6 9 1014.9 - 0.0

Latest Capital City Observations: Canberra | Sydney | Melbourne | Brisbane | Adelaide | Perth | Hobart | Darwin

Other Formats:

Comma delimited format used in spreadsheet applications
http://www.bom.gov.au/fwo/IDQ60901/IDQ60901.94555.axf

JavaScript Object Notation format (JSON) in row-major order
http://www.bom.gov.au/fwo/IDQ60901/IDQ60901.94555.json